To NAV CANADA Home Page Login to a new session Search on AWWS site Feedback and Comments Disclaimer Vers la page française équivalente Tips FAQ What's new on the site To the Forecasts and Observations / NOTAM section To "File a Flight Plan" website Publications and other links Update of the User's profile FIC Telephone Numbers My Weather Data Folder Route Weather Data Regional Weather Data Local Weather Data To the Forecasts and Observations / NOTAM section
Request Generated 04/27/2015 at 13:35:28 UTC . Weather information available at that time is displayed.

METAR/TAF

DAWSON CITY/YT    

LWIS CYDA 271300Z AUTO 00000KT M01/M04 A2961=
LWIS CYDA 271200Z AUTO 00000KT M01/M04 A2961=
LWIS CYDA 271100Z AUTO 07002KT M01/M04 A2961=

*** REMARK        : Forecast period has ended; this was the last TAF issued
*** REMARQUE : La période de prévision est échue; ceci était le dernier TAF qui a été émis
TAF CYDA 261738Z 2618/2623 VRB03KT P6SM SCT220
BECMG 2619/2621 07008KT
FM262100 07008KT P6SM FEW060 TEMPO 2621/2623 BKN060
RMK NXT FCST WILL BE ISSUED AT 271545Z=
Your time UTC time
Weather data provided by Environment Canada and NAV CANADA